PDT,Max TemperatureF,Mean TemperatureF,Min TemperatureF,Max Dew PointF,MeanDew PointF,Min DewpointF,Max Humidity, Mean Humidity, Min Humidity, Max Sea Level PressureIn, Mean Sea Level PressureIn, Min Sea Level PressureIn, Max VisibilityMiles, Mean VisibilityMiles, Min VisibilityMiles, Max Wind SpeedMPH, Mean Wind SpeedMPH, Max Gust SpeedMPH,PrecipitationIn, CloudCover, Events, WindDirDegrees
2013-9-1,95,85,75,64,61,56,69,50,30,29.93,29.89,29.83,10,10,10,24,14,36,0.00,0,,235
2013-9-2,99,87,75,59,54,50,58,40,21,29.92,29.87,29.80,10,10,10,25,11,32,0.00,0,,251
2013-9-3,99,86,72,57,52,48,61,41,20,29.93,29.88,29.83,10,10,10,23,9,28,0.00,0,,253
2013-9-4,102,84,66,52,49,46,55,36,16,29.97,29.91,29.84,10,10,10,21,7,26,0.00,0,,255
2013-9-5,101,84,67,52,46,43,48,31,14,29.94,29.89,29.84,10,10,10,22,8,28,0.00,0,,257
2013-9-6,102,83,63,48,44,40,45,30,14,29.94,29.88,29.80,10,10,10,23,8,29,0.00,0,,254
2013-9-7,101,81,61,40,37,34,39,25,11,29.92,29.86,29.79,10,10,10,21,7,26,0.00,0,,242
2013-9-8,99,81,63,51,37,32,39,25,10,29.87,29.81,29.73,10,10,10,20,6,24,0.00,0,,247
2013-9-9,97,85,72,51,44,36,44,31,17,29.83,29.76,29.67,10,10,10,25,9,37,T,0,Rain,255
2013-9-10,91,80,69,40,36,31,29,22,14,29.87,29.81,29.72,10,10,10,24,14,32,0.00,0,,241
2013-9-11,92,81,69,51,41,35,43,30,16,29.93,29.90,29.86,10,10,10,24,15,30,0.00,0,,245
2013-9-12,94,77,59,42,37,28,46,28,10,29.94,29.88,29.81,10,10,10,22,9,26,0.00,0,,254
2013-9-13,96,79,61,47,41,36,37,26,14,29.85,29.78,29.68,10,10,10,28,8,31,0.00,0,,265
2013-9-14,100,81,61,51,44,36,52,32,11,29.78,29.72,29.65,10,10,10,22,6,26,0.00,0,,257
2013-9-15,98,81,64,49,41,35,48,30,12,29.80,29.75,29.72,10,10,10,21,7,29,0.00,0,,250
2013-9-16,96,77,58,42,36,27,51,32,12,29.87,29.81,29.75,10,10,10,25,9,36,0.00,0,,236
2013-9-17,89,73,57,47,32,11,44,25,5,29.81,29.76,29.69,10,10,10,26,16,31,0.00,0,,253
2013-9-18,89,75,60,41,37,26,49,30,11,29.81,29.77,29.72,10,10,10,24,10,31,0.00,0,,281
2013-9-19,93,71,48,45,33,21,50,29,8,29.88,29.81,29.75,10,10,10,17,5,21,0.00,0,,333
2013-9-20,90,71,51,54,40,29,57,37,16,29.83,29.80,29.77,10,10,10,25,9,31,0.00,0,,245
2013-9-21,77,67,56,51,48,42,72,54,36,29.85,29.81,29.75,10,10,9,29,17,35,0.00,1,,243
2013-9-22,73,63,52,47,40,36,72,50,28,29.93,29.86,29.80,10,10,9,30,17,38,0.00,0,,277
2013-9-23,86,65,43,40,35,29,70,42,13,30.01,29.95,29.89,10,10,10,13,4,18,0.00,0,,355
2013-9-24,90,69,47,39,32,27,50,31,11,29.97,29.89,29.82,10,10,10,28,11,35,0.00,0,,239
2013-9-25,73,64,54,45,39,33,59,43,26,29.81,29.75,29.69,10,10,10,35,25,41,0.00,1,,276
2013-9-26,70,60,49,38,31,16,66,39,12,29.93,29.82,29.73,10,10,10,28,19,33,0.00,0,,286
2013-9-27,74,57,40,29,22,13,51,31,11,30.10,30.04,29.94,10,10,10,15,6,21,0.00,0,,50
2013-9-28,82,60,37,25,19,14,48,29,9,30.16,30.09,30.03,10,10,10,13,4,16,0.00,0,,334
2013-9-29,89,65,41,27,21,15,39,23,7,30.12,30.06,29.98,10,9,2,29,11,38,0.00,0,,263
2013-9-30,86,74,62,43,35,29,48,33,17,30.00,29.93,29.87,10,10,10,31,20,37,0.00,0,,273